Location: Peebles
(55.6412°N, 3.1714°W)
Time: 05:43:46
(UTC+00:00)

Cosmos 1025 Rocket - Visible Passes

Search period start: 28 January 2022 00:00
Search period end: 07 February 2022 00:00
Orbit: 593 x 618 km, 82.5° (Epoch: 27 January)

Date Brightness Start Highest point End Pass type
(mag) Time Alt. Az. Time Alt. Az. Time Alt. Az.
28 Jan 5.8 18:50:12 10° W 18:52:49 15° WNW 18:55:27 10° NNW visible
29 Jan 3.7 17:23:27 10° SSW 17:27:45 57° WNW 17:32:02 10° N visible
29 Jan 6.0 19:05:05 10° WNW 19:06:22 11° NW 19:07:38 10° NW visible
30 Jan 4.5 17:36:58 10° SW 17:41:03 38° WNW 17:45:07 10° N visible
31 Jan 5.1 17:50:43 10° WSW 17:54:25 27° WNW 17:58:07 10° N visible
01 Feb 5.6 18:04:42 10° WSW 18:07:50 19° WNW 18:10:58 10° NNW visible
02 Feb 5.8 18:19:05 10° W 18:21:20 14° NW 18:23:35 10° NNW visible
06 Feb 5.6 17:33:28 10° W 17:36:19 17° WNW 17:39:11 10° NNW visible
